GW3504 Weather Reports


time (UTC)temp
F
wind
direction
speed
knots
gust
knots
rain 1hr
in
rain 24hr
in
rain mn
in
humidity
%
barometer
mb
20260901111033 78 0 0.0 3.5 0.00 0.00 0.00 61 1016.2
20260901110526 78 0 0.0 7.0 0.00 0.00 0.00 61 1016.1
20260901110051 78 0 0.0 7.0 0.00 0.00 0.00 61 1016.2
20260901105524 78 0 0.0 3.5 0.00 0.00 0.00 60 1016.2
20260901105027 78 0 0.0 3.5 0.00 0.00 0.00 61 1016.1
20260901104546 78 0 0.0 4.3 0.00 0.00 0.00 60 1016.1
20260901104023 78 185 0.0 5.2 0.00 0.00 0.00 60 1016.1
20260901103523 78 0 0.9 5.2 0.00 0.00 0.00 60 1016.1
20260901103042 78 0 0.0 4.3 0.00 0.00 0.00 60 1016.0
20260901102525 79 0 0.9 4.3 0.00 0.00 0.00 60 1016.0
20260901102023 79 170 0.9 4.3 0.00 0.00 0.00 59 1015.9
20260901101543 79 156 0.0 4.3 0.00 0.00 0.00 59 1015.9
20260901101025 79 0 0.0 4.3 0.00 0.00 0.00 59 1015.9
20260901100531 80 0 0.9 5.2 0.00 0.00 0.00 58 1015.8
20260901100044 80 167 0.9 5.2 0.00 0.00 0.00 58 1015.8
20260901095523 80 0 0.9 5.2 0.00 0.00 0.00 57 1015.8
20260901095023 80 188 0.9 5.2 0.00 0.00 0.00 57 1015.7
20260901094544 80 0 0.0 7.8 0.00 0.00 0.00 57 1015.8
20260901094027 80 0 0.9 7.8 0.00 0.00 0.00 57 1015.8
20260901093522 80 0 1.7 7.8 0.00 0.00 0.00 57 1015.6
20260901093050 80 159 1.7 5.2 0.00 0.00 0.00 58 1015.7
20260901092523 80 194 0.0 6.1 0.00 0.00 0.00 58 1015.5
20260901092031 80 0 0.9 6.1 0.00 0.00 0.00 58 1015.4
20260901091545 80 0 0.0 6.1 0.00 0.00 0.00 58 1015.4
20260901091024 80 0 0.0 5.2 0.00 0.00 0.00 58 1015.4
20260901090526 80 0 0.0 6.1 0.00 0.00 0.00 58 1015.4
20260901090050 80 0 0.9 6.1 0.00 0.00 0.00 58 1015.4
20260901085525 79 288 0.0 4.3 0.00 0.00 0.00 59 1015.3
20260901085023 79 229 0.0 3.5 0.00 0.00 0.00 59 1015.3
20260901084548 79 0 0.0 3.5 0.00 0.00 0.00 59 1015.4
20260901084029 79 0 0.0 3.5 0.00 0.00 0.00 59 1015.4
20260901083525 79 0 0.0 2.6 0.00 0.00 0.00 59 1015.3
20260901083049 79 0 0.0 2.6 0.00 0.00 0.00 59 1015.3
20260901082526 80 0 0.0 5.2 0.00 0.00 0.00 58 1015.1
20260901082028 80 0 0.0 5.2 0.00 0.00 0.00 58 1015.1
20260901081548 80 170 0.0 3.5 0.00 0.00 0.00 57 1015.1
20260901081025 80 0 0.0 1.7 0.00 0.00 0.00 57 1015.1
20260901080523 80 0 0.0 5.2 0.00 0.00 0.00 56 1015.1
20260901080049 81 0 0.0 5.2 0.00 0.00 0.00 55 1015.2
20260901075524 81 0 0.0 3.5 0.00 0.00 0.00 55 1015.2
20260901075027 81 0 0.0 5.2 0.00 0.00 0.00 54 1015.2
20260901074548 82 0 0.0 5.2 0.00 0.00 0.00 54 1015.1
20260901074025 82 129 0.0 5.2 0.00 0.00 0.00 54 1015.2
20260901073523 82 0 0.9 6.1 0.00 0.00 0.00 53 1015.2
20260901073046 82 178 0.9 6.1 0.00 0.00 0.00 53 1015.2
20260901072528 82 136 0.0 2.6 0.00 0.00 0.00 53 1015.1
20260901072023 82 0 0.0 4.3 0.00 0.00 0.00 53 1015.2
20260901071552 82 0 0.0 4.3 0.00 0.00 0.00 53 1015.2
20260901071024 82 0 0.0 5.2 0.00 0.00 0.00 52 1015.2
20260901070525 82 142 0.0 5.2 0.00 0.00 0.00 52 1015.3
20260901065525 82 184 0.9 9.6 0.00 0.00 0.00 52 1015.2
20260901065027 83 253 0.0 7.8 0.00 0.00 0.00 52 1015.3
20260901064546 83 0 0.0 7.8 0.00 0.00 0.00 51 1015.2
20260901064025 83 0 0.0 7.8 0.00 0.00 0.00 51 1015.3
20260901063526 83 181 0.9 7.0 0.00 0.00 0.00 51 1015.3
20260901063050 83 167 1.7 11.3 0.00 0.00 0.00 51 1015.2
20260901062524 82 222 2.6 11.3 0.00 0.00 0.00 51 1015.2
20260901062028 82 184 2.6 7.8 0.00 0.00 0.00 53 1015.3
20260901061551 81 165 1.7 7.8 0.00 0.00 0.00 54 1015.3
20260901061024 81 159 1.7 5.2 0.00 0.00 0.00 54 1015.2
20260901060524 81 160 1.7 5.2 0.00 0.00 0.00 54 1015.4
20260901060044 81 173 1.7 5.2 0.00 0.00 0.00 54 1015.3
20260901055525 81 163 0.9 4.3 0.00 0.00 0.00 55 1015.4
20260901055024 81 186 0.9 4.3 0.00 0.00 0.00 54 1015.4
20260901054549 81 167 0.0 4.3 0.00 0.00 0.00 55 1015.3
20260901054025 81 0 0.0 2.6 0.00 0.00 0.00 55 1015.3
20260901053526 81 0 0.0 3.5 0.00 0.00 0.00 54 1015.3
20260901053053 81 0 0.0 3.5 0.00 0.00 0.00 54 1015.3
20260901052523 81 163 0.0 4.3 0.00 0.00 0.00 54 1015.3
20260901052024 81 0 0.0 4.3 0.00 0.00 0.00 54 1015.3
20260901051544 81 0 0.0 2.6 0.00 0.00 0.00 54 1015.3
20260901051026 81 0 0.0 3.5 0.00 0.00 0.00 54 1015.4
20260901050525 82 0 0.0 3.5 0.00 0.00 0.00 53 1015.4
20260901050053 82 171 0.0 3.5 0.00 0.00 0.00 53 1015.4
20260901045523 82 172 0.0 1.7 0.00 0.00 0.00 53 1015.4
20260901045022 82 0 0.0 1.7 0.00 0.00 0.00 52 1015.4
20260901044556 83 0 0.0 1.7 0.00 0.00 0.00 52 1015.4
20260901044025 83 0 0.0 2.6 0.00 0.00 0.00 51 1015.4
20260901043527 83 0 0.0 2.6 0.00 0.00 0.00 51 1015.4
20260901043048 83 0 0.0 2.6 0.00 0.00 0.00 51 1015.3
20260901042527 84 0 0.0 2.6 0.00 0.00 0.00 50 1015.3
20260901042023 84 0 0.0 1.7 0.00 0.00 0.00 50 1015.2
20260901041544 84 0 0.0 4.3 0.00 0.00 0.00 50 1015.2
20260901041025 84 0 0.0 4.3 0.00 0.00 0.00 49 1015.2
20260901040524 85 0 0.9 3.5 0.00 0.00 0.00 49 1015.2
20260901040053 85 0 0.0 6.1 0.00 0.00 0.00 49 1015.1
20260901035524 85 0 0.9 6.1 0.00 0.00 0.00 48 1015.1
20260901035024 85 144 1.7 6.1 0.00 0.00 0.00 48 1015.1
20260901034549 86 0 0.9 5.2 0.00 0.00 0.00 48 1015.1
20260901034028 86 153 0.9 5.2 0.00 0.00 0.00 48 1015.1
20260901033524 86 176 0.9 5.2 0.00 0.00 0.00 47 1015.0
20260901033100 86 0 0.9 7.8 0.00 0.00 0.00 47 1014.9
20260901032526 86 0 1.7 7.8 0.00 0.00 0.00 48 1014.8
20260901032027 86 157 0.9 6.1 0.00 0.00 0.00 48 1014.8
20260901031545 87 0 1.7 7.0 0.00 0.00 0.00 47 1014.8
20260901031023 87 161 0.9 7.0 0.00 0.00 0.00 47 1014.8
20260901030524 87 177 0.0 7.0 0.00 0.00 0.00 47 1014.7
20260901030101 87 165 0.9 7.0 0.00 0.00 0.00 46 1014.7
20260901025525 87 174 0.0 7.8 0.00 0.00 0.00 46 1014.8
20260901025024 87 139 1.7 7.8 0.00 0.00 0.00 47 1014.8
20260901024551 87 157 0.0 5.2 0.00 0.00 0.00 47 1014.8
20260901024025 87 0 0.0 4.3 0.00 0.00 0.00 47 1014.7
20260901023536 87 162 0.0 4.3 0.00 0.00 0.00 48 1014.6
20260901023049 87 0 0.9 4.3 0.00 0.00 0.00 48 1014.6
20260901022524 88 153 0.9 4.3 0.00 0.00 0.00 48 1014.6
20260901022025 88 164 0.9 5.2 0.00 0.00 0.00 49 1014.5
20260901021558 88 121 0.9 5.2 0.00 0.00 0.00 48 1014.4
20260901021028 88 120 1.7 5.2 0.00 0.00 0.00 49 1014.4
20260901020523 88 164 0.9 7.0 0.00 0.00 0.00 48 1014.3
20260901020045 89 152 0.9 7.8 0.00 0.00 0.00 49 1014.3
20260901015522 89 0 1.7 7.8 0.00 0.00 0.00 49 1014.3
20260901015025 89 0 0.9 3.5 0.00 0.00 0.00 49 1014.3
20260901014544 89 0 0.0 3.5 0.00 0.00 0.00 48 1014.2
20260901014024 89 0 0.0 3.5 0.00 0.00 0.00 48 1014.2
20260901013523 89 0 0.0 2.6 0.00 0.00 0.00 48 1014.1
20260901013055 90 0 0.0 2.6 0.00 0.00 0.00 47 1014.1
20260901012523 90 0 0.0 4.3 0.00 0.00 0.00 47 1014.0
20260901012023 90 0 0.0 4.3 0.00 0.00 0.00 47 1014.0
20260901011608 90 0 0.0 1.7 0.00 0.00 0.00 47 1013.9
20260901011026 91 0 0.0 4.3 0.00 0.00 0.00 47 1013.8
20260901010527 91 0 0.0 4.3 0.00 0.00 0.00 46 1013.8
20260901010046 91 0 0.0 3.5 0.00 0.00 0.00 46 1013.8
20260901005524 92 0 0.0 1.7 0.00 0.00 0.00 45 1013.8
20260901005027 92 0 0.0 2.6 0.00 0.00 0.00 45 1013.8
20260901004546 93 0 0.0 4.3 0.00 0.00 0.00 44 1013.7
20260901004026 93 142 0.0 4.3 0.00 0.00 0.00 44 1013.7
20260901003524 94 0 0.9 4.3 0.00 0.00 0.00 43 1013.7
20260901003052 94 153 0.0 2.6 0.00 0.00 0.00 43 1013.7
20260901002523 94 0 0.0 2.6 0.00 0.00 0.00 43 1013.7
20260901002027 95 0 0.9 2.6 0.00 0.00 0.00 42 1013.7
20260901001548 95 0 0.0 4.3 0.00 0.00 0.00 42 1013.8
20260901001027 95 0 0.9 4.3 0.00 0.00 0.00 41 1013.7
20260901000522 96 182 0.0 3.5 0.00 0.00 0.00 41 1013.7
20260901000045 96 0 0.0 4.3 0.00 0.00 0.00 41 1013.7
20260831235524 96 163 0.0 5.2 0.00 0.00 0.00 40 1013.8
20260831235025 96 0 0.9 7.0 0.00 0.00 0.00 40 1013.8
20260831234547 96 0 0.9 7.8 0.00 0.00 0.00 40 1013.8
20260831234026 96 199 1.7 8.7 0.00 0.00 0.00 39 1013.8
20260831233524 96 0 2.6 8.7 0.00 0.00 0.00 39 1013.8
20260831233048 97 153 3.5 8.7 0.00 0.00 0.00 39 1013.8
20260831232523 97 184 3.5 8.7 0.00 0.00 0.00 39 1013.7
20260831232024 97 144 2.6 8.7 0.00 0.00 0.00 40 1013.7
20260831231551 97 169 2.6 7.0 0.00 0.00 0.00 39 1013.8
20260831231024 97 0 1.7 8.7 0.00 0.00 0.00 39 1013.8
20260831230527 97 158 2.6 8.7 0.00 0.00 0.00 39 1013.8
20260831230053 97 178 1.7 7.0 0.00 0.00 0.00 39 1013.8
20260831225522 97 177 1.7 9.6 0.00 0.00 0.00 39 1013.7
20260831225027 98 148 2.6 9.6 0.00 0.00 0.00 38 1013.7
20260831224548 98 146 2.6 8.7 0.00 0.00 0.00 37 1013.6
20260831224025 99 0 0.9 8.7 0.00 0.00 0.00 37 1013.6
20260831223528 99 196 2.6 8.7 0.00 0.00 0.00 35 1013.6
20260831223047 99 175 2.6 13.0 0.00 0.00 0.00 35 1013.6
20260831222529 99 258 2.6 13.0 0.00 0.00 0.00 36 1013.6
20260831222026 99 163 2.6 10.4 0.00 0.00 0.00 35 1013.7
20260831221603 99 175 1.7 10.4 0.00 0.00 0.00 36 1013.7
20260831221025 99 186 0.9 9.6 0.00 0.00 0.00 37 1013.7
20260831220525 99 188 3.5 9.6 0.00 0.00 0.00 35 1013.8
20260831220047 100 140 2.6 7.8 0.00 0.00 0.00 35 1013.8
20260831215528 100 198 0.9 9.6 0.00 0.00 0.00 35 1013.8
20260831215023 100 176 4.3 9.6 0.00 0.00 0.00 36 1013.8
20260831214554 100 187 2.6 7.8 0.00 0.00 0.00 36 1013.8
20260831214025 101 200 1.7 6.1 0.00 0.00 0.00 36 1013.8
20260831213528 101 0 0.9 7.8 0.00 0.00 0.00 36 1013.7
20260831213045 100 275 0.9 9.6 0.00 0.00 0.00 36 1013.7
20260831212524 100 313 0.9 9.6 0.00 0.00 0.00 36 1013.8
20260831212028 101 285 1.7 8.7 0.00 0.00 0.00 35 1013.8
20260831211552 101 235 2.6 7.0 0.00 0.00 0.00 35 1013.8
20260831211022 100 316 0.9 7.0 0.00 0.00 0.00 35 1013.9
20260831210530 100 131 0.9 7.0 0.00 0.00 0.00 35 1013.8
20260831210048 100 324 1.7 10.4 0.00 0.00 0.00 35 1014.0
20260831205524 101 303 2.6 10.4 0.00 0.00 0.00 36 1014.1
20260831205026 101 128 1.7 5.2 0.00 0.00 0.00 36 1014.1
20260831204546 101 0 0.0 10.4 0.00 0.00 0.00 36 1014.1
20260831204026 101 319 0.9 10.4 0.00 0.00 0.00 35 1014.2
20260831203525 101 5 0.9 7.0 0.00 0.00 0.00 36 1014.1
20260831203108 100 113 2.6 7.0 0.00 0.00 0.00 35 1014.1
20260831202529 100 0 1.7 6.1 0.00 0.00 0.00 37 1014.2
20260831202029 100 297 1.7 6.1 0.00 0.00 0.00 37 1014.2
20260831201553 100 244 2.6 6.1 0.00 0.00 0.00 36 1014.3
20260831201024 100 0 1.7 7.8 0.00 0.00 0.00 36 1014.3
20260831200529 100 266 2.6 7.8 0.00 0.00 0.00 36 1014.3
20260831200053 100 176 1.7 7.8 0.00 0.00 0.00 37 1014.3
20260831195525 99 203 1.7 7.8 0.00 0.00 0.00 37 1014.4
20260831195027 99 259 1.7 7.0 0.00 0.00 0.00 38 1014.3
20260831194601 99 295 1.7 7.8 0.00 0.00 0.00 37 1014.3
20260831194027 99 257 0.9 7.8 0.00 0.00 0.00 39 1014.3
20260831193524 99 171 1.7 7.0 0.00 0.00 0.00 37 1014.3
20260831193049 99 178 0.9 7.0 0.00 0.00 0.00 37 1014.4
20260831192525 99 0 1.7 7.0 0.00 0.00 0.00 36 1014.4
20260831192024 99 262 2.6 7.8 0.00 0.00 0.00 36 1014.4
20260831191550 99 5 0.9 7.8 0.00 0.00 0.00 37 1014.5
20260831191027 99 178 1.7 13.0 0.00 0.00 0.00 38 1014.6
20260831190531 99 170 2.6 13.0 0.00 0.00 0.00 37 1014.5
20260831190057 99 162 0.9 9.6 0.00 0.00 0.00 38 1014.5
20260831185527 98 276 2.6 9.6 0.00 0.00 0.00 40 1014.6
20260831185022 98 254 1.7 9.6 0.00 0.00 0.00 39 1014.6
20260831184552 97 188 3.5 9.6 0.00 0.00 0.00 38 1014.5
20260831184024 98 175 1.7 8.7 0.00 0.00 0.00 39 1014.6
20260831183529 97 261 1.7 13.0 0.00 0.00 0.00 40 1014.6
20260831183046 96 309 2.6 13.0 0.00 0.00 0.00 40 1014.7
20260831182525 96 181 5.2 10.4 0.00 0.00 0.00 39 1014.6
20260831182029 96 0 2.6 8.7 0.00 0.00 0.00 42 1014.7
20260831181552 96 315 1.7 9.6 0.00 0.00 0.00 41 1014.8
20260831181027 96 203 1.7 9.6 0.00 0.00 0.00 42 1014.9
20260831180530 96 265 1.7 8.7 0.00 0.00 0.00 42 1015.0
20260831180100 95 174 1.7 8.7 0.00 0.00 0.00 43 1015.0
20260831175525 95 186 2.6 8.7 0.00 0.00 0.00 42 1015.1
20260831175027 96 175 1.7 7.8 0.00 0.00 0.00 43 1015.2
20260831174547 95 159 1.7 7.8 0.00 0.00 0.00 43 1015.2
20260831174025 95 207 1.7 9.6 0.00 0.00 0.00 44 1015.4
20260831173524 94 322 2.6 12.2 0.00 0.00 0.00 45 1015.3
20260831173050 93 159 0.9 12.2 0.00 0.00 0.00 47 1015.3
20260831172526 93 179 3.5 12.2 0.00 0.00 0.00 46 1015.3
20260831172026 93 150 2.6 13.0 0.00 0.00 0.00 44 1015.3
20260831171543 93 170 2.6 13.0 0.00 0.00 0.00 46 1015.4
20260831171024 93 265 3.5 7.0 0.00 0.00 0.00 45 1015.4
20260831170532 93 84 0.9 8.7 0.00 0.00 0.00 46 1015.5
20260831170049 93 150 0.9 8.7 0.00 0.00 0.00 45 1015.6
20260831165524 92 276 3.5 8.7 0.00 0.00 0.00 46 1015.6
20260831165026 92 0 1.7 7.8 0.00 0.00 0.00 46 1015.6
20260831164547 92 204 2.6 10.4 0.00 0.00 0.00 46 1015.7
20260831164023 92 0 1.7 11.3 0.00 0.00 0.00 47 1015.6
20260831163528 92 0 1.7 11.3 0.00 0.00 0.00 46 1015.5
20260831163043 91 114 2.6 9.6 0.00 0.00 0.00 47 1015.5
20260831162530 91 200 1.7 8.7 0.00 0.00 0.00 47 1015.5
20260831162027 91 170 0.9 13.9 0.00 0.00 0.00 49 1015.6
20260831161550 89 165 4.3 13.9 0.00 0.00 0.00 49 1015.6
20260831161026 90 170 1.7 7.8 0.00 0.00 0.00 50 1015.6
20260831160524 90 350 0.9 8.7 0.00 0.00 0.00 50 1015.7
20260831160047 89 169 2.6 8.7 0.00 0.00 0.00 50 1015.7
20260831155526 88 281 1.7 7.8 0.00 0.00 0.00 52 1015.8
20260831155028 88 0 2.6 7.8 0.00 0.00 0.00 53 1015.9
20260831154619 88 0 0.9 5.2 0.00 0.00 0.00 52 1015.9
20260831154028 87 90 0.9 7.0 0.00 0.00 0.00 54 1015.9
20260831153532 86 132 1.7 7.0 0.00 0.00 0.00 54 1015.8
20260831153053 86 219 0.9 4.3 0.00 0.00 0.00 54 1015.9
20260831152528 86 0 0.9 4.3 0.00 0.00 0.00 55 1015.8
20260831152029 86 0 0.9 4.3 0.00 0.00 0.00 54 1015.7
20260831151549 86 0 0.9 7.0 0.00 0.00 0.00 56 1015.7
20260831151028 85 0 0.9 7.0 0.00 0.00 0.00 56 1015.8
20260831150530 86 163 0.9 7.0 0.00 0.00 0.00 55 1015.8
20260831150048 86 345 1.7 7.8 0.00 0.00 0.00 56 1015.8
20260831145528 85 180 0.9 7.8 0.00 0.00 0.00 58 1015.8
20260831145029 84 225 1.7 8.7 0.00 0.00 0.00 57 1015.7
20260831144552 84 218 2.6 8.7 0.00 0.00 0.00 59 1015.7
20260831144024 84 348 1.7 8.7 0.00 0.00 0.00 59 1015.7
20260831143526 83 0 1.7 8.7 0.00 0.00 0.00 60 1015.7
20260831143054 83 170 0.0 5.2 0.00 0.00 0.00 61 1015.8
20260831142526 82 269 1.7 7.8 0.00 0.00 0.00 61 1015.8
20260831142028 82 306 0.0 7.8 0.00 0.00 0.00 62 1015.9
20260831141549 81 42 1.7 11.3 0.00 0.00 0.00 63 1015.9
20260831141025 80 190 0.9 11.3 0.00 0.00 0.00 64 1015.9
20260831140527 79 178 2.6 10.4 0.00 0.00 0.00 65 1015.9
20260831140048 79 159 3.5 7.8 0.00 0.00 0.00 66 1015.9
20260831135525 78 159 2.6 7.8 0.00 0.00 0.00 67 1015.8
20260831135024 78 184 1.7 7.0 0.00 0.00 0.00 67 1016.0
20260831134546 78 131 2.6 7.0 0.00 0.00 0.00 66 1015.9
20260831134031 78 217 0.9 7.8 0.00 0.00 0.00 66 1015.8
20260831133528 78 298 2.6 7.8 0.00 0.00 0.00 66 1015.7
20260831133055 78 0 1.7 7.8 0.00 0.00 0.00 67 1015.7
20260831132525 77 161 0.9 7.0 0.00 0.00 0.00 68 1015.7
20260831132030 77 170 2.6 7.0 0.00 0.00 0.00 67 1015.8
20260831131553 77 171 1.7 7.8 0.00 0.00 0.00 67 1015.9
20260831131027 77 0 1.7 7.8 0.00 0.00 0.00 67 1015.9
20260831130524 77 0 0.9 6.1 0.00 0.00 0.00 67 1015.8
20260831130052 77 129 1.7 6.1 0.00 0.00 0.00 67 1015.8
20260831125523 77 0 0.9 6.1 0.00 0.00 0.00 67 1015.7
20260831125028 77 138 0.9 9.6 0.00 0.00 0.00 67 1015.7
20260831124549 77 161 1.7 9.6 0.00 0.00 0.00 67 1015.5
20260831124024 76 188 2.6 8.7 0.00 0.00 0.00 67 1015.4
20260831123525 76 182 1.7 5.2 0.00 0.00 0.00 68 1015.4
20260831123050 76 0 1.7 5.2 0.00 0.00 0.00 68 1015.5
20260831122527 76 192 0.0 4.3 0.00 0.00 0.00 68 1015.4
20260831122025 76 0 0.9 6.1 0.00 0.00 0.00 68 1015.3
20260831121545 75 0 0.9 6.1 0.00 0.00 0.00 68 1015.2
20260831121024 75 0 0.9 6.1 0.00 0.00 0.00 68 1015.2
20260831120525 75 0 0.9 6.1 0.00 0.00 0.00 68 1015.1
20260831120053 75 157 0.0 5.2 0.00 0.00 0.00 68 1014.9
20260831115531 75 0 0.9 5.2 0.00 0.00 0.00 68 1014.9
20260831115027 75 0 0.0 6.1 0.00 0.00 0.00 67 1014.7
20260831114544 75 196 2.6 6.1 0.00 0.00 0.00 67 1014.5
20260831114025 76 167 2.6 6.1 0.00 0.00 0.00 67 1014.5
20260831113525 76 143 2.6 7.0 0.00 0.00 0.00 66 1014.4
20260831113050 76 182 1.7 7.8 0.00 0.00 0.00 65 1014.4
20260831112524 76 187 3.5 7.8 0.00 0.00 0.00 65 1014.4
20260831112024 76 0 1.7 6.1 0.00 0.00 0.00 65 1014.4
20260831111554 77 196 1.7 7.8 0.00 0.00 0.00 65 1014.5